map of MBX home
MBX - Airport
Location
City:  Maribor, Slovenia
ICAO:LJMB
IATA:MBX

Details
Type:Airport (Aerodrome, Airfield)
Use:Public/Civil, International (customs port of entry)
Latitude:4628'47"N (46.479861)
Longitude:1541'10"E (15.686131)
Datum:WGS 1984
Elevation:876 ft (267 m)
Variation:4.03E (WMM2015 magnetic declination)
0.11 annual change
Runways:2
Longest:8202 × 148 ft (2500 × 45 m), paved

Time
Time Zone:UTC+1 (DST+2)
Local Time:

Weather
METAR:LJMB 231330Z 18008KT 140V220 CAVOK 18/11 Q1017
TAF:LJMB 230800Z 2309/2409 19005KT 9999 SCT050 BKN110
TEMPO 2312/2324 21012G25KT
TEMPO 2400/2406 VRB10G20KT 7000 TSRA SCT030CB BKN035
BECMG 2400/2403 36010KT FEW035 SCT080
TEMPO 2401/2409 36012G27KT
BECMG 2406/2409 FEW050

Related Locations
Nearby:
Farthest:CHT: 11819 mi / 19020 km
Waitangi [Tuuta], CIT, NZ

Find:

   beyond  
but within

Other Information
Maps:
NOTAMs:
Links:
Sources:

  
  • flag of Slovenia
  

Sectional Chart

Flight Planning
at skyvector.com

Satellite Image

Google Maps Satellite view

 

Copyright © 2004-2018 Karl L. Swartz. All rights reserved.
The Great Circle Mapper name and logo are trademarks of the Great Circle Mapper.
All other trademarks mentioned herein belong to their respective owners.
Please see credits for attibutions and further copyright information.

  Follow gcmap on Facebook Follow gcmap on Twitter Follow gcmap on Google+ GCmap on LinkedIn

hCard Microformat

Geo Microformat